RH
68 71 73 75 77 77 76 75 74 73 71 71 69 67 66 64 64 64 62 62 62 62 65 66 64 64 67 73 78 83 87 88 87 83 80 80 81 84 87 91 95 97 100 103 104 106 109 105 105 106 102 101 100 97 97 96 95 95 95 96 97 98 98 98 97 96 94 91 88 85 83 81 80 80 81 82 82 81 78 74 69 64 57 50 43 38
45 47 49 50 52 52 53 52 51 52 52 52 52 53 54 55 57 61 65 66 66 66 69 69 68 66 69 76 84 93 100 103 103 102 101 101 101 101 101 101 103 104 105 108 107 106 107 104 102 100 97 95 94 94 95 95 96 96 97 97 97 96 95 94 92 90 88 86 86 86 87 89 91 92 92 91 86 80 72 64 57 52 47 43 40 36
42 44 44 44 46 46 47 47 46 48 49 50 51 52 57 58 59 64 69 69 68 69 70 69 67 65 69 82 94 103 109 110 108 107 107 107 108 106 105 103 103 103 103 104 103 100 99 97 95 93 92 93 94 95 95 94 93 92 92 91 90 89 87 86 85 85 86 88 90 93 95 97 97 94 88 82 74 66 58 52 46 43 40 37 34 32
42 42 42 42 44 45 47 47 49 52 54 55 54 55 60 60 59 61 65 68 69 72 76 74 71 71 78 91 101 106 110 110 108 107 108 108 109 107 105 104 103 102 100 98 95 93 90 89 88 89 90 91 91 90 88 87 86 86 86 86 85 84 84 84 84 85 87 89 90 91 91 89 85 79 71 64 57 52 48 44 41 37 33 31 30 30
46 48 50 52 52 54 55 55 55 58 61 60 56 56 60 62 62 63 67 73 78 86 92 90 86 85 90 97 102 106 109 109 109 109 109 108 106 103 101 98 96 94 92 89 86 85 85 85 86 86 86 86 85 84 84 85 86 86 85 84 83 82 82 82 82 81 80 79 78 76 72 68 63 58 54 51 48 45 42 39 37 34 31 31 31 31
57 57 59 61 61 60 59 59 59 61 67 71 67 66 70 74 77 79 81 84 91 100 103 102 98 90 85 88 94 100 103 103 103 102 100 96 92 89 88 86 86 85 85 85 86 88 89 90 90 90 90 89 89 89 90 89 86 84 81 78 75 73 71 68 66 64 61 58 56 54 52 49 47 44 42 41 40 40 39 37 35 34 34 34 34 34
62 62 64 65 65 65 66 69 70 73 81 87 86 86 87 89 91 93 93 93 96 100 101 104 99 79 66 69 76 82 86 86 85 84 82 80 79 81 83 85 88 90 92 94 95 96 95 94 92 91 89 87 84 81 78 74 69 65 61 58 55 52 50 48 47 46 45 44 43 43 43 43 42 43 42 41 40 39 39 39 38 38 38 37 36 36
75 77 78 79 81 81 82 84 86 87 92 96 97 99 100 99 99 97 94 90 86 82 83 88 80 59 49 54 61 67 71 73 76 78 78 79 80 82 84 86 87 86 85 84 82 79 76 72 68 65 62 59 57 54 51 49 47 46 45 44 43 43 43 43 44 44 45 46 47 47 48 47 46 46 46 46 46 46 46 47 47 47 45 44 42 40
90 93 93 92 92 91 91 93 95 96 99 101 101 100 98 94 90 84 77 73 66 61 67 74 67 56 51 54 60 64 65 65 66 66 66 65 64 64 63 62 60 57 56 55 53 52 50 49 47 47 46 46 45 45 45 46 46 46 46 46 47 47 48 48 49 51 52 53 54 54 54 53 52 51 51 51 53 54 56 56 55 54 52 50 48 45
97 98 99 99 97 96 97 98 97 96 94 92 88 84 79 74 70 66 64 63 60 57 61 64 61 56 50 47 50 50 47 46 46 44 44 45 45 44 44 43 43 44 45 45 46 47 47 48 49 49 50 50 50 50 51 51 50 50 50 49 49 49 50 51 53 54 55 55 55 55 54 55 55 55 55 56 58 60 60 60 58 56 53 51 50 48
103 105 105 103 99 95 92 87 82 78 74 70 67 64 62 60 57 55 54 52 49 47 46 45 44 42 39 38 41 41 39 39 39 40 42 42 43 43 44 45 46 47 47 47 48 48 49 50 50 51 51 51 51 50 50 50 49 49 48 48 48 50 52 54 57 58 58 58 58 58 58 58 60 62 63 65 65 65 63 62 60 58 57 56 55 55
86 87 84 78 71 67 64 61 57 54 51 49 47 46 44 44 42 40 39 38 37 37 37 38 39 39 40 41 43 44 44 45 45 46 46 46 47 47 47 48 48 49 49 49 50 51 52 52 52 53 53 53 53 53 52 52 52 51 52 53 56 59 62 65 67 68 69 68 68 68 68 69 71 71 71 71 69 66 64 63 62 62 62 62 61 60
56 53 53 51 49 47 46 46 44 41 38 36 36 35 34 34 34 35 37 38 40 41 41 43 44 45 46 47 48 49 50 51 51 51 51 51 51 51 52 52 52 53 54 55 56 57 57 58 58 58 59 58 58 58 57 56 56 57 58 60 63 65 67 68 69 69 69 68 68 69 69 70 69 68 67 65 64 63 63 63 63 63 63 62 61 59
55 50 47 46 44 41 40 40 40 40 40 40 40 40 40 38 36 37 41 42 43 44 45 45 46 46 46 47 47 48 48 48 48 47 47 48 48 49 49 49 49 50 51 52 53 53 54 54 54 54 54 53 53 52 52 51 51 52 53 55 57 58 59 59 60 60 59 59 59 59 59 58 57 56 56 55 55 56 56 57 57 57 57 57 56 55
51 46 42 41 40 39 40 41 42 43 44 45 46 45 45 43 40 38 39 40 39 40 41 41 41 40 40 40 41 41 41 40 40 40 40 40 41 41 40 41 42 42 43 43 44 44 44 44 45 45 45 44 44 43 43 43 44 47 49 51 52 52 51 50 50 49 49 49 48 47 47 47 47 48 48 49 49 50 50 50 51 51 51 52 52 52
46 45 42 43 45 44 44 44 44 44 43 43 43 42 40 39 38 36 35 35 34 33 33 34 35 35 35 35 36 36 35 35 35 35 35 35 35 35 36 37 38 39 40 41 41 42 42 42 41 41 40 40 40 41 43 46 49 51 52 51 49 48 47 47 47 47 47 47 46 46 46 47 47 48 49 49 50 50 50 51 51 52 53 53 54 54
49 49 46 44 44 43 41 40 39 38 38 38 37 37 36 36 35 34 33 33 33 31 31 32 33 35 36 36 36 38 37 37 37 37 37 37 38 38 40 41 43 44 46 46 46 45 43 43 43 44 45 47 49 52 54 56 55 54 53 51 51 52 52 52 53 53 54 55 55 56 56 57 57 58 58 58 58 58 58 58 57 56 55 54 53 51
43 43 42 40 38 38 38 38 38 37 37 37 36 36 36 36 36 35 35 34 35 34 34 36 38 38 39 40 40 41 42 41 41 42 43 43 44 46 48 50 51 52 51 50 49 48 49 51 53 55 56 58 59 61 61 60 58 57 58 59 60 60 61 61 62 62 63 64 64 65 65 64 63 62 61 59 57 55 53 51 48 45 42 38 35 33
38 39 40 39 38 39 40 41 41 40 38 37 36 37 36 37 37 38 39 39 37 37 36 38 39 40 41 42 43 43 43 44 46 47 49 49 51 53 54 54 53 52 51 51 51 53 54 55 56 56 56 57 58 58 57 57 56 56 55 55 54 54 53 53 53 53 53 52 51 50 49 47 44 42 40 37 34 32 30 28 27 25 23 22 20 20
39 40 42 42 41 42 41 41 41 40 40 40 41 41 40 40 39 39 40 40 39 37 36 36 36 37 39 40 40 39 39 40 41 41 42 42 42 42 41 40 39 38 38 38 39 39 39 38 38 38 39 39 39 38 38 37 36 35 34 33 32 31 30 30 29 29 29 28 27 26 26 25 24 23 22 21 20 19 19 18 18 17 17 16 16 15
41 42 44 44 43 42 41 41 41 41 41 42 42 42 41 41 41 41 41 41 40 38 35 31 29 28 27 27 27 26 26 25 25 24 24 23 23 22 22 21 21 21 21 21 20 20 20 20 20 21 21 21 21 21 21 21 20 20 20 19 19 19 19 19 19 19 19 19 19 18 18 18 17 17 17 17 16 16 16 15 15 14 14 14 13 13
44 44 43 43 43 43 43 42 41 41 40 40 40 39 39 39 39 38 36 35 34 32 28 24 20 17 16 16 16 16 16 15 15 15 14 14 14 14 14 15 14 14 14 14 15 15 15 15 15 16 16 16 16 16 16 16 16 16 16 16 17 17 17 16 16 16 16 16 15 15 15 15 14 14 14 14 14 13 13 13 13 13 12 12 12 11
43 43 43 43 43 42 42 42 42 41 41 41 41 40 39 37 33 30 26 23 21 20 19 17 15 14 13 13 13 13 13 13 13 13 13 13 13 13 14 14 14 14 14 14 14 14 14 14 14 14 14 14 14 14 14 14 14 14 14 14 14 13 13 13 13 13 13 13 13 13 13 13 13 13 13 12 12 12 12 12 11 11 11 10 10 10
42 43 43 44 44 44 44 44 45 44 43 42 40 38 34 30 25 21 17 15 14 14 14 13 13 13 12 12 12 12 12 12 12 12 12 12 12 11 11 11 11 11 11 11 11 11 11 12 12 12 12 12 12 12 12 11 11 11 11 10 11 10 11 12 12 12 12 13 13 12 12 12 12 12 12 12 11 11 11 11 10 10 10 10 10 10
43 42 42 42 43 43 43 44 45 45 41 36 30 26 21 18 16 14 13 13 13 13 12 12 12 12 12 12 12 12 12 12 11 11 11 10 10 9 9 8 8 8 8 8 8 8 9 9 9 9 9 9 10 10 10 10 9 9 9 9 9 9 10 11 11 11 12 12 12 12 12 11 11 11 11 11 11 10 10 10 10 10 9 9 9 9
44 43 42 42 40 39 37 36 34 31 26 21 17 14 13 12 12 12 12 12 13 13 13 13 13 13 13 13 12 12 12 12 11 11 10 9 9 8 8 8 7 7 7 7 7 7 7 7 7 7 7 8 8 8 8 8 8 8 8 8 8 8 9 9 9 10 10 10 10 10 10 10 10 10 10 10 9 9 9 9 9 8 8 8 8 8
46 45 44 41 39 36 33 28 23 18 15 13 13 13 13 13 12 12 13 13 13 13 13 13 12 12 12 12 11 11 10 10 9 9 9 8 8 8 8 8 8 8 8 8 8 7 7 7 7 7 7 7 7 7 7 7 7 7 7 7 7 8 8 8 8 8 8 9 8 9 9 9 9 9 8 8 8 8 8 8 7 7 7 7 7 6
48 47 44 41 38 34 28 22 17 14 14 14 14 14 13 13 13 12 13 12 12 11 11 11 10 10 10 9 9 8 8 8 8 7 7 8 8 8 8 8 8 8 8 8 8 8 8 8 8 7 7 7 7 7 7 7 7 7 7 7 7 7 7 7 7 7 7 7 7 7 8 7 7 8 7 7 7 7 7 7 7 7 6 6 6 6
48 46 43 39 34 28 21 16 14 14 14 14 14 13 13 13 12 12 12 11 10 10 9 9 9 8 8 8 8 7 7 7 8 8 8 8 8 8 8 8 8 8 8 8 8 8 8 8 8 8 8 8 8 8 8 8 8 7 7 7 7 7 7 7 7 7 7 7 7 7 7 7 7 7 7 7 7 7 7 7 6 7 6 6 7 7
47 45 41 34 27 20 16 14 14 14 13 13 13 13 13 13 12 11 11 11 11 11 10 9 9 9 8 8 8 8 8 8 8 8 8 8 8 8 8 8 8 8 8 8 8 8 8 8 8 8 8 8 8 8 8 8 8 8 7 7 7 7 7 7 7 7 7 7 7 7 7 7 7 7 7 7 7 7 7 7 7 7 7 7 7 7
45 40 33 25 19 15 14 14 14 13 13 13 13 13 13 13 13 12 11 12 11 11 11 10 9 9 8 8 8 8 8 8 8 8 8 8 8 8 8 8 8 8 8 7 7 7 7 7 7 7 7 7 8 7 8 8 8 8 7 7 8 8 7 7 7 7 7 7 7 7 7 7 7 7 7 7 7 7 7 7 7 7 7 7 7 7
39 32 24 18 15 14 14 14 13 13 12 12 12 13 13 13 13 12 11 11 10 10 10 9 9 9 8 9 9 9 8 8 8 8 8 9 9 8 8 8 8 8 8 8 8 7 7 7 7 7 7 7 7 7 7 7 7 7 7 7 7 7 7 7 7 7 7 7 7 7 7 7 7 7 7 7 7 7 6 6 6 6 6 6 6 6
31 23 17 14 13 14 14 13 12 12 12 12 12 13 13 12 12 11 10 10 10 9 9 8 9 9 9 9 10 10 10 9 9 10 9 9 9 9 9 9 8 8 8 8 8 8 7 8 7 7 7 7 7 7 7 7 7 7 7 7 7 7 7 7 7 7 7 7 7 7 6 7 7 6 6 6 6 6 6 6 5 5 5 5 5 5
23 17 13 13 13 14 13 13 13 12 12 12 11 11 11 11 12 11 10 10 10 9 9 9 10 10 10 11 11 12 12 11 11 11 10 10 9 9 9 9 8 8 8 8 8 8 7 7 7 7 7 7 7 7 7 7 7 7 7 7 7 7 7 7 7 6 7 6 6 6 6 6 6 6 6 6 6 6 5 5 5 5 5 5 5 5
18 14 13 13 13 13 13 12 12 12 12 11 11 11 12 11 11 11 11 10 10 11 11 11 11 11 11 12 12 12 13 12 11 12 12 11 11 10 10 9 9 9 9 8 8 8 8 8 7 7 7 7 7 7 7 7 6 7 7 7 7 7 7 7 6 6 6 6 6 6 6 6 6 6 6 6 5 5 5 5 5 5 5 5 5 5
15 12 12 13 13 14 13 12 12 12 12 12 12 12 12 11 11 12 12 11 11 11 11 12 12 12 12 12 12 13 14 13 12 13 13 13 12 12 12 11 11 10 10 9 9 9 8 8 8 8 8 7 7 7 7 7 7 7 7 7 7 7 7 6 6 6 6 6 6 6 6 6 6 6 6 6 5 5 5 5 5 5 5 5 5 5
13 12 13 13 13 14 13 12 12 13 13 13 12 12 12 11 11 11 11 11 12 12 12 12 13 13 13 13 13 13 14 14 13 13 14 14 14 13 13 12 12 11 11 10 10 9 9 8 8 8 8 8 8 8 8 7 7 7 7 8 8 7 7 7 7 7 7 7 7 6 6 6 6 6 6 6 6 5 5 5 5 5 5 5 5 5
13 13 14 14 14 15 14 13 13 13 13 12 12 12 12 11 11 11 11 11 11 12 12 12 13 13 13 13 13 12 13 14 13 13 13 14 14 13 13 12 12 11 11 10 9 9 8 8 8 8 8 8 8 8 8 8 8 8 8 8 8 8 8 8 8 7 7 7 7 7 6 6 6 6 6 6 6 6 6 5 5 5 5 5 5 5
13 14 15 16 15 15 15 14 13 13 13 13 13 12 12 11 11 11 11 11 11 12 12 12 13 14 13 13 12 12 12 13 13 13 12 12 12 12 12 11 11 10 10 9 9 9 8 8 8 8 8 8 8 8 8 8 8 8 8 8 9 8 8 8 8 8 7 7 7 7 7 7 7 6 6 6 6 6 5 5 5 5 5 5 5 5
15 15 16 17 16 16 16 15 15 14 14 13 13 12 11 11 11 11 11 11 11 12 12 13 13 13 14 13 13 13 12 12 13 13 12 12 11 11 10 10 10 9 9 9 8 8 8 8 8 8 8 8 9 9 9 9 9 8 8 8 8 8 8 8 7 7 7 7 7 7 6 6 6 6 6 6 5 5 5 5 5 5 5 5 5 5
17 16 17 17 17 17 16 16 16 15 15 14 13 12 11 11 11 11 11 11 11 12 12 13 13 13 14 14 14 14 14 13 13 12 12 12 11 10 10 9 9 9 8 8 8 8 8 8 8 8 8 8 9 9 9 9 9 8 8 8 8 8 7 7 7 7 6 6 6 6 5 5 5 5 5 5 5 5 5 5 5 5 6 6 5 5
19 17 17 17 17 17 16 16 16 15 15 14 14 13 12 12 12 12 11 11 11 12 12 13 13 14 15 15 15 15 14 14 13 12 12 12 11 10 10 9 9 9 8 8 8 8 8 8 8 8 8 8 9 9 9 9 9 8 8 8 7 7 7 6 6 6 6 6 6 5 5 5 5 5 5 5 5 5 5 5 5 5 6 6 6 5
20 17 17 17 16 16 16 15 15 15 15 15 15 15 14 13 12 12 12 12 12 12 13 14 14 15 16 16 16 15 14 14 13 12 12 12 12 11 11 10 10 9 9 9 9 9 9 9 9 8 8 8 8 8 9 9 9 8 7 7 7 7 7 6 6 6 6 6 6 5 5 5 5 5 5 5 5 5 5 5 5 5 6 6 6 5
24 20 19 19 19 18 17 17 16 16 16 16 16 17 15 14 13 12 12 12 13 13 14 15 16 16 16 16 17 15 15 14 14 13 13 13 13 12 12 11 11 10 10 10 9 9 9 9 9 9 8 8 8 8 8 8 8 8 7 7 7 7 7 7 6 6 6 6 6 5 5 5 5 5 5 5 5 5 5 5 5 5 6 6 5 5
30 26 22 21 22 22 21 20 19 17 17 17 16 17 16 15 14 14 13 14 14 15 15 16 16 17 16 17 17 16 15 14 14 14 13 13 14 13 13 13 12 11 11 10 10 10 9 9 9 9 8 8 8 8 8 8 8 8 7 7 7 7 7 7 6 6 6 6 6 6 5 6 5 5 5 5 5 5 5 5 5 5 5 5 5 5
36 33 28 24 24 24 23 23 21 18 17 16 16 17 16 16 15 15 16 16 16 16 16 16 16 17 16 17 17 17 16 15 15 15 14 14 14 14 14 14 13 12 11 11 10 10 10 9 9 9 8 8 7 7 7 7 7 7 7 7 7 7 7 7 6 6 6 6 6 6 6 6 6 5 5 5 4 4 4 5 5 5 5 5 5 5
40 38 35 30 26 24 24 25 24 21 18 16 17 17 17 17 17 17 17 17 17 17 17 17 17 17 17 17 17 17 17 15 15 16 15 14 15 15 15 14 13 13 12 11 11 10 10 10 10 9 8 8 7 7 7 7 7 7 7 7 7 7 7 7 6 6 7 7 6 6 6 6 5 5 5 4 4 4 4 4 5 5 5 5 5 5
44 41 40 38 32 28 26 25 26 25 21 18 17 17 17 18 17 17 17 17 17 18 18 18 18 17 17 17 17 17 17 16 16 16 15 15 15 15 15 15 14 13 13 12 11 10 10 10 9 9 9 8 7 7 7 7 7 7 7 7 7 7 7 7 7 7 7 7 7 6 6 6 5 5 5 4 4 4 4 4 4 4 4 5 5 5
50 45 44 42 39 35 30 25 25 26 25 21 19 18 18 18 17 17 17 17 18 18 18 18 18 18 18 18 17 17 17 17 16 16 16 15 15 15 15 15 14 13 13 12 11 10 9 9 9 9 9 8 7 7 7 7 8 7 7 7 7 7 7 7 7 7 7 7 6 6 5 5 5 5 5 4 4 4 3 4 4 4 4 4 5 5
60 54 50 47 45 44 38 31 27 26 26 24 21 19 18 18 17 18 18 18 18 18 18 18 18 18 18 18 18 18 18 17 17 17 16 15 14 14 15 14 14 13 12 11 10 9 9 9 9 9 8 8 7 7 7 7 7 7 7 7 7 7 7 8 8 7 7 6 6 5 5 5 4 5 4 4 4 4 3 3 4 4 5 5 5 5
73 67 61 56 54 51 47 41 33 28 27 26 23 20 19 19 19 18 19 19 19 18 18 18 18 18 19 19 18 18 17 17 17 17 17 16 15 14 14 14 13 13 12 11 10 9 9 8 8 8 8 7 7 7 7 7 7 7 7 7 7 7 7 8 8 7 6 6 5 5 5 5 5 5 4 4 4 4 4 4 3 4 5 5 5 5
Wind_Speed
81 82 84 84 85 86 87 88 88 88 88 88 88 88 88 87 86 87 87 86 86 86 85 86 86 86 86 87 88 89 90 91 92 93 93 93 93 93 93 93 94 94 95 96 97 98 99 100 101 102 102 103 104 105 105 106 106 106 106 106 106 106 106 106 105 105 104 104 103 102 101 101 100 100 99 99 99 99 99 99 99 99 98 97 96 94
76 77 78 79 79 80 81 82 82 82 82 82 82 82 81 81 81 81 82 82 84 84 84 84 85 85 85 85 87 88 89 90 91 92 92 93 93 94 95 95 96 96 97 98 100 101 102 102 103 104 104 105 105 106 106 106 107 106 106 106 106 106 105 104 104 103 102 101 101 100 100 100 100 100 100 101 101 101 101 101 100 99 98 97 94 91
70 70 72 72 73 74 75 76 76 76 76 77 78 78 78 79 79 79 81 82 83 84 84 85 86 85 85 86 88 89 90 91 91 92 93 94 95 96 97 98 98 99 100 101 102 103 104 104 105 105 106 106 106 106 106 106 105 105 105 104 104 103 102 102 101 101 101 101 100 100 101 101 102 102 103 103 103 103 103 101 100 98 96 94 91 87
65 66 67 68 69 70 71 72 72 73 74 75 77 77 77 79 80 80 81 83 84 85 86 87 87 86 86 87 89 90 90 91 92 94 95 96 97 98 99 100 100 101 102 103 104 104 104 104 104 104 104 104 103 103 103 103 103 102 102 102 102 102 102 102 102 102 102 102 102 102 102 103 103 104 104 104 104 102 101 100 98 96 93 90 88 86
62 64 65 66 67 68 70 71 72 72 74 76 77 78 79 80 82 82 83 84 85 85 87 88 88 86 87 89 90 90 91 93 94 95 97 98 99 100 100 101 101 102 102 102 101 101 101 101 101 101 101 101 101 101 101 101 102 102 102 102 103 103 103 103 103 103 104 104 104 104 104 104 104 103 103 102 101 100 98 96 95 93 91 89 88 88
62 63 64 66 67 69 70 72 73 74 75 77 79 80 80 81 83 84 85 85 85 85 87 88 89 87 88 89 90 91 93 94 95 97 98 98 99 99 99 99 99 98 98 98 98 99 99 99 100 100 100 101 101 102 102 103 103 104 104 104 104 105 105 105 104 104 104 103 103 102 102 102 101 100 99 98 97 96 96 95 94 93 92 92 92 92
63 64 66 67 69 70 72 73 74 75 76 78 79 81 82 82 83 84 85 86 85 86 87 89 91 90 88 88 90 91 93 94 95 95 95 95 96 96 96 96 96 96 97 97 98 99 100 100 101 102 102 103 103 104 104 104 104 104 104 104 103 103 102 102 101 101 100 99 99 98 98 98 97 97 97 97 96 96 96 97 97 97 97 96 96 96
64 66 68 69 71 72 73 74 76 76 77 78 80 81 82 82 83 84 85 86 87 87 87 90 92 91 86 85 87 88 89 90 92 93 93 94 94 94 95 96 96 97 98 99 99 100 100 101 101 101 102 102 102 101 101 101 100 100 100 99 99 98 98 98 98 98 98 97 97 98 98 98 98 98 99 99 100 100 100 100 101 102 102 102 102 102
66 68 69 71 72 73 74 75 76 76 77 78 79 80 82 83 84 85 85 86 87 86 85 88 91 89 85 84 85 87 88 89 91 92 93 93 94 94 94 95 95 96 96 96 96 97 97 97 97 98 98 98 98 98 98 98 98 98 98 98 98 99 99 99 100 100 101 101 101 101 102 102 103 103 103 103 104 104 105 105 106 107 107 107 108 108
66 68 69 71 72 73 74 75 76 77 77 79 80 81 82 83 83 83 83 84 84 83 83 85 87 87 85 83 84 86 86 87 88 89 89 90 90 90 91 91 92 92 93 93 94 94 95 96 97 98 98 99 99 100 100 101 101 102 102 102 102 103 103 104 104 105 105 106 106 106 106 107 107 107 107 107 108 108 109 109 110 110 110 111 111 111
66 68 69 71 72 73 74 75 76 76 77 78 78 79 79 80 79 79 79 79 80 79 80 81 82 83 81 79 81 83 84 84 85 86 87 88 89 90 91 92 93 93 94 95 96 97 98 99 100 101 102 102 103 103 104 104 105 105 105 105 105 106 106 107 107 108 108 108 109 109 109 109 109 109 109 110 110 111 111 111 112 112 112 112 113 113
67 68 70 70 71 71 71 72 73 73 73 73 74 74 74 74 74 73 73 74 75 75 76 77 79 80 80 79 81 83 84 86 87 88 89 90 92 93 93 94 95 96 97 98 99 100 101 102 102 103 104 105 105 106 106 106 106 107 107 107 107 107 108 108 109 110 110 110 111 111 111 111 111 111 112 112 112 113 113 113 113 114 114 115 115 116
67 67 68 68 67 67 66 67 67 68 69 69 70 71 71 70 70 69 70 72 73 74 76 77 79 80 81 82 83 84 85 87 88 89 90 92 93 94 95 96 97 98 99 99 100 102 103 103 104 105 105 106 107 107 108 108 108 108 108 108 109 109 110 111 111 112 113 113 113 113 113 113 114 114 114 115 115 115 115 115 116 116 117 118 118 118
62 64 65 65 64 64 62 62 63 64 65 67 68 70 71 72 72 70 70 71 72 73 76 78 80 81 82 84 85 86 88 89 90 91 92 93 95 96 97 98 99 100 101 102 103 104 105 106 106 107 108 108 109 109 109 110 109 109 110 110 111 112 113 113 114 114 115 116 116 116 116 116 116 117 117 117 117 117 117 118 118 119 119 120 121 121
53 57 58 59 60 60 61 61 62 63 65 67 69 71 72 75 76 74 73 74 74 73 75 78 81 83 84 86 87 89 90 91 93 94 95 96 97 98 99 100 101 101 103 104 105 106 107 108 108 109 110 110 111 111 111 111 111 111 112 113 114 114 115 116 116 116 117 117 118 118 118 118 118 118 119 119 119 119 120 120 120 121 121 122 123 124
47 52 55 56 58 59 61 63 64 65 67 68 71 72 74 76 78 78 78 78 79 77 76 79 83 85 87 88 90 92 93 94 95 96 97 98 99 100 101 102 103 104 106 107 108 109 110 110 111 111 112 112 112 113 113 113 114 115 116 116 117 117 118 118 119 119 120 120 121 121 121 121 121 121 122 122 123 123 123 124 124 125 125 126 126 127
46 52 56 58 59 61 62 65 67 68 70 71 73 75 77 79 81 82 82 83 84 83 81 82 85 88 90 92 93 96 97 98 99 100 101 102 103 104 105 106 108 109 110 111 112 113 113 114 115 115 116 116 117 117 118 119 119 120 120 121 121 122 122 123 123 124 124 125 125 125 126 126 127 127 127 127 128 128 128 129 129 129 129 129 129 129
47 52 58 59 61 64 65 68 70 71 73 75 76 77 79 81 83 85 86 86 87 87 85 86 89 91 94 95 96 99 100 102 103 104 106 107 107 109 110 111 112 113 114 115 116 116 117 118 119 120 120 121 122 122 123 124 124 124 125 125 126 127 127 127 128 128 128 129 129 130 130 131 131 131 131 131 131 131 131 131 130 130 130 129 129 128
51 54 59 62 63 65 67 70 72 74 76 78 79 80 82 82 83 86 89 90 91 91 89 89 91 94 97 99 100 101 103 104 105 107 108 109 110 112 113 114 115 116 116 117 118 119 120 120 121 122 123 123 124 125 125 126 127 127 127 127 128 128 128 128 129 129 129 129 129 130 130 130 130 130 129 129 129 128 128 128 128 127 127 127 126 126
56 57 61 63 65 66 68 71 73 75 78 80 82 84 86 87 88 88 91 94 96 95 95 93 92 93 97 100 102 102 103 104 105 106 108 109 110 111 112 113 114 114 115 115 116 117 118 118 119 120 121 122 122 123 123 124 124 125 125 125 125 125 125 125 125 125 125 125 125 125 126 126 126 126 126 125 125 125 125 124 124 124 123 123 123 122
59 60 62 65 67 69 71 73 75 77 78 81 83 85 88 90 92 92 93 96 99 99 99 97 95 93 95 97 99 100 100 101 102 103 104 105 106 107 108 108 109 110 111 111 112 112 113 114 114 115 116 117 118 118 119 119 120 120 120 120 121 121 121 121 121 121 121 121 121 121 121 121 122 122 122 122 121 121 121 121 120 120 120 119 119 118
61 63 64 66 68 71 73 75 78 80 82 84 86 88 90 91 93 93 93 94 97 98 99 99 97 95 94 94 96 97 98 98 99 100 101 101 102 103 103 104 105 105 106 106 107 107 108 109 109 110 111 111 112 113 113 114 114 115 115 115 115 116 116 116 117 117 117 117 117 117 117 117 117 117 117 117 117 117 116 116 116 116 115 115 115 114
64 65 68 70 72 74 76 79 82 84 86 89 90 92 93 94 94 94 93 92 92 94 95 96 97 95 94 94 95 95 95 96 97 97 98 98 98 99 99 100 100 101 102 102 103 103 103 104 105 106 106 107 107 108 109 109 110 110 111 111 111 112 112 112 113 113 113 113 113 113 113 113 113 113 113 113 113 113 112 112 112 112 111 111 111 112
68 69 70 72 75 78 80 83 86 88 89 90 91 92 93 93 92 92 91 91 90 91 92 92 92 92 92 92 93 92 92 93 93 93 94 94 94 95 95 95 96 97 97 98 98 99 100 100 101 102 103 103 104 105 106 106 107 107 108 108 108 108 109 109 109 109 109 109 110 110 110 110 110 110 110 110 110 110 110 110 110 110 110 110 110 110
72 73 74 75 77 79 81 83 84 86 87 87 87 87 87 88 88 88 88 88 88 89 90 90 89 90 90 90 91 91 91 91 92 92 93 94 94 94 94 94 95 95 95 95 95 95 96 96 97 98 98 99 100 101 102 103 103 104 104 105 105 105 105 106 106 106 106 106 107 107 107 108 108 108 109 109 109 109 109 109 110 109 109 109 109 109
77 79 80 81 82 83 82 82 82 82 82 83 83 83 84 84 84 85 85 86 86 86 87 88 87 87 88 88 88 89 89 90 91 91 92 93 93 94 94 94 94 94 94 94 94 94 94 94 94 94 94 95 96 97 98 99 99 100 101 101 101 102 102 103 104 104 104 105 105 106 106 107 107 108 108 108 108 109 109 109 109 109 108 108 108 108
81 83 85 86 87 87 86 85 84 83 83 83 83 83 83 83 83 82 83 83 83 82 83 84 84 82 83 84 84 84 85 85 86 86 87 88 88 89 90 90 91 91 92 92 92 92 93 93 93 93 93 93 94 95 96 96 97 97 98 98 99 99 100 101 102 102 103 103 104 104 105 106 106 107 107 107 107 107 107 107 107 107 107 106 106 106
83 86 87 88 88 88 87 87 85 84 83 82 82 81 81 81 81 80 80 80 81 79 78 79 79 78 78 79 79 79 80 80 80 81 81 82 82 83 84 84 85 86 87 87 88 89 90 91 91 92 92 93 94 94 95 95 96 96 96 97 97 97 98 98 99 100 100 101 101 102 103 103 104 104 104 104 104 104 104 104 104 104 104 103 103 103
85 87 89 89 88 87 86 84 83 81 80 79 79 79 78 79 79 78 77 78 80 80 78 77 77 76 76 76 76 75 76 76 76 77 77 77 77 78 79 80 80 81 81 82 83 84 85 86 87 87 88 90 90 91 92 93 94 94 94 95 95 96 96 96 97 98 98 98 99 99 100 100 101 101 101 101 101 101 101 100 100 100 100 100 99 99
86 88 88 88 86 84 82 81 79 77 76 75 75 76 75 76 78 77 76 76 79 80 80 79 78 78 77 77 76 76 75 75 74 75 75 75 75 75 76 76 77 77 78 78 79 80 81 82 82 83 84 85 86 87 89 90 90 91 92 92 93 93 94 94 95 95 95 96 96 96 97 97 97 98 98 97 97 97 97 97 97 97 97 97 96 96
87 87 86 84 82 80 79 77 75 74 73 72 72 73 73 73 76 76 74 74 75 76 78 79 78 78 77 77 77 77 76 76 75 74 75 75 75 74 75 75 75 75 76 76 77 77 78 79 79 80 81 82 83 84 85 86 87 88 88 89 89 90 91 91 92 92 93 93 93 94 94 94 95 95 95 95 95 95 95 94 94 94 93 93 94 93
86 84 82 80 79 77 75 73 72 71 70 70 69 70 70 70 72 74 73 72 73 73 73 75 76 76 76 76 77 78 78 77 76 75 75 76 76 75 74 74 75 75 75 76 76 77 77 78 78 78 79 80 80 81 82 83 84 85 85 86 86 87 88 89 89 90 90 91 91 91 91 92 92 92 93 92 92 92 92 92 92 91 91 91 91 91
84 81 79 76 75 73 71 70 69 69 68 68 67 67 67 67 70 73 72 71 72 72 71 72 73 74 75 75 75 76 77 78 77 75 75 75 75 75 74 74 74 75 75 76 76 77 77 77 77 78 79 79 80 80 81 81 82 83 83 84 84 85 86 87 87 88 88 89 88 89 89 89 90 90 90 90 90 90 90 90 89 89 88 89 89 89
81 79 76 73 71 69 68 67 68 68 67 66 65 65 66 66 67 70 71 70 71 72 72 72 73 73 74 74 73 73 75 76 75 74 74 74 74 74 75 75 75 76 76 77 77 77 77 77 77 77 77 78 78 79 80 80 81 81 81 82 82 83 84 85 85 86 86 86 86 86 86 87 87 87 88 88 88 88 88 87 87 86 86 86 86 86
79 76 74 71 69 67 66 65 65 66 66 66 66 66 67 66 66 69 71 71 71 71 72 72 72 72 72 72 71 71 72 74 74 74 74 75 75 76 76 77 77 78 78 78 78 78 78 77 77 77 77 78 78 78 79 79 79 80 80 80 81 81 82 82 83 83 83 84 84 84 84 84 85 85 85 86 86 86 86 85 84 84 84 84 84 84
76 74 72 70 67 66 66 65 66 67 69 69 69 68 68 67 66 66 68 69 69 69 68 68 68 69 69 68 68 68 68 71 73 72 73 75 76 77 78 78 79 79 80 80 80 80 79 78 78 78 78 78 78 78 78 79 79 79 79 79 80 80 80 81 81 82 82 82 82 82 82 82 83 83 84 84 84 84 83 83 82 81 81 81 82 82
76 74 72 70 68 67 67 67 67 68 70 70 69 69 69 69 67 66 66 67 67 67 66 66 65 66 66 66 66 65 65 67 69 70 70 72 74 75 76 77 78 79 79 79 80 80 79 78 78 77 77 76 76 76 76 77 77 77 77 78 78 79 79 79 80 80 80 81 81 81 81 80 80 81 81 81 81 82 81 80 80 79 79 79 79 80
76 75 74 72 71 70 69 69 68 67 68 69 69 69 69 69 68 67 67 67 68 67 66 65 65 65 66 66 66 65 64 65 68 69 69 69 71 72 73 75 76 77 78 78 78 78 78 77 76 76 75 74 74 74 74 74 75 75 75 75 75 76 76 77 77 77 78 78 78 78 78 78 78 78 78 79 79 79 78 78 77 77 76 76 76 77
78 76 75 74 73 72 72 72 71 70 70 71 71 70 70 70 70 69 68 68 68 68 67 67 66 66 67 68 68 68 67 66 67 69 69 69 70 71 72 73 74 75 76 76 76 77 76 76 75 74 72 72 72 72 72 73 73 73 73 73 73 74 74 74 74 74 75 75 75 75 75 75 75 75 76 76 76 76 76 75 75 74 74 74 73 74
79 77 76 75 74 73 72 73 73 73 73 73 73 72 71 72 73 73 71 70 70 70 69 68 68 68 69 70 71 71 71 70 70 71 71 72 72 73 73 73 74 74 75 75 75 75 75 75 74 72 71 70 70 71 71 71 72 72 71 71 72 72 72 72 72 72 73 73 73 73 74 73 73 73 73 73 74 74 73 71 70 70 70 70 70 70
78 77 76 75 75 74 73 72 73 74 74 74 75 75 74 73 74 74 74 73 72 72 71 70 70 70 71 73 73 74 74 74 74 74 74 74 75 75 75 75 75 75 75 75 74 74 74 74 73 71 70 69 69 69 69 70 71 70 70 70 70 71 71 71 71 71 71 72 72 72 72 72 72 71 71 71 71 71 70 68 66 65 66 67 68 68
78 78 77 76 75 75 75 74 72 73 74 75 76 77 76 75 75 75 76 76 74 73 73 73 73 73 73 74 75 75 75 76 77 77 77 77 77 77 77 76 76 76 75 75 74 73 72 72 72 71 69 68 68 68 68 68 69 69 68 68 69 70 70 71 71 71 71 71 72 72 71 71 71 70 69 69 68 67 67 65 64 62 62 63 65 66
80 79 79 79 78 78 78 78 77 77 77 78 79 79 79 78 77 77 77 77 77 77 76 76 76 75 74 74 76 76 77 77 78 78 79 79 79 79 79 78 77 76 76 75 74 72 72 71 71 70 68 67 67 66 66 66 68 68 68 68 68 69 70 70 70 70 70 71 71 71 70 70 69 68 67 67 66 65 64 63 62 60 59 60 62 64
83 83 83 82 83 82 83 84 84 84 83 82 82 82 82 81 80 80 80 80 80 80 79 79 78 77 76 76 76 77 78 78 80 80 80 81 81 80 80 79 78 77 77 76 74 73 72 71 70 70 69 67 66 66 65 66 67 68 68 67 68 69 69 69 70 70 70 70 70 70 69 69 68 67 66 65 64 63 61 60 59 58 57 58 60 62
86 86 86 85 86 86 86 86 86 86 86 85 84 84 84 84 84 84 84 84 84 83 82 81 80 79 79 78 79 80 80 80 81 82 82 82 82 81 81 80 79 78 77 76 75 73 72 71 71 70 69 68 67 66 66 65 66 68 68 67 67 68 68 69 69 69 69 69 69 69 68 67 66 65 64 63 61 60 58 57 57 56 56 57 59 60
87 88 88 87 86 86 86 87 87 87 87 87 87 87 87 87 87 87 87 87 87 86 85 84 83 82 82 81 81 82 82 82 82 83 83 82 82 81 81 80 79 78 77 76 75 74 73 72 71 71 70 70 68 67 66 66 66 67 67 67 67 67 68 68 69 69 68 69 68 67 66 65 64 63 62 61 59 57 55 54 53 54 54 55 57 59
89 89 89 90 89 88 88 88 89 89 89 89 89 89 90 90 90 90 89 89 89 89 89 88 86 85 84 84 83 84 84 84 83 84 84 83 82 81 80 79 79 78 77 76 75 74 73 72 72 72 71 71 70 68 67 67 67 67 67 67 67 67 68 68 69 68 68 67 66 66 64 63 62 62 61 60 58 56 53 51 50 50 50 52 55 58
92 91 91 91 91 91 90 90 90 91 92 92 92 91 91 92 92 92 92 92 92 92 91 91 90 88 87 86 86 85 86 86 85 85 84 83 82 81 80 79 79 78 78 77 76 75 74 73 73 73 72 72 71 69 68 67 67 67 67 67 67 67 67 68 68 67 66 65 65 64 63 62 61 60 60 59 57 54 51 50 48 48 47 48 52 56
95 94 94 94 94 94 93 92 92 92 93 93 93 93 93 93 94 94 94 94 94 93 93 92 91 91 89 89 88 87 87 87 87 86 86 85 83 82 81 80 79 79 78 78 77 76 74 73 73 73 73 73 71 70 69 68 67 67 68 67 67 67 66 67 67 66 65 64 63 62 62 61 60 59 58 57 56 53 50 47 45 46 47 47 49 52
98 98 97 96 96 96 96 96 95 94 94 95 95 95 95 96 96 96 96 96 96 95 94 93 92 92 92 91 90 89 89 89 89 88 88 87 85 83 81 80 80 80 79 78 78 77 75 74 73 73 73 73 72 70 69 68 67 68 68 68 67 66 65 65 65 64 64 63 63 61 60 59 58 57 56 55 54 53 52 47 42 40 43 47 50 50
101 101 100 100 99 99 99 99 98 97 96 97 97 98 98 98 98 98 98 98 98 97 96 95 93 93 92 93 92 91 91 91 90 89 89 88 86 84 82 81 80 80 80 79 78 78 76 75 74 73 73 73 72 71 69 68 68 68 68 68 67 65 63 63 63 63 63 62 62 61 59 57 57 56 55 54 52 51 52 51 46 39 36 40 47 51
Wind_Direction
270 271 272 273 273 274 275 275 276 276 277 277 278 278 278 278 279 279 280 280 280 280 281 281 282 282 283 284 284 285 284 284 284 284 284 284 284 284 284 284 284 284 284 283 283 283 282 282 282 282 282 282 282 282 282 282 282 282 282 282 282 282 282 282 281 281 281 281 281 281 281 281 281 280 280 280 280 279 279 279 279 279 279 279 279 278
271 272 273 274 275 275 276 276 277 277 278 278 278 278 279 279 279 280 281 281 281 282 282 282 282 283 283 284 284 284 284 284 285 285 285 285 285 284 284 284 284 284 283 283 283 282 282 282 282 282 282 282 282 282 282 282 282 282 282 282 282 281 281 281 281 281 280 280 280 280 281 281 281 280 280 280 280 279 279 279 279 279 279 278 278 277
274 274 275 275 276 276 277 277 278 279 279 279 279 280 280 281 281 281 282 282 282 282 283 282 282 282 283 283 283 283 283 284 284 284 284 284 284 284 284 284 284 283 283 283 283 283 283 283 282 282 282 282 282 282 282 282 282 281 281 281 281 281 281 280 280 280 280 280 281 281 281 281 281 280 280 280 280 280 280 279 279 279 278 277 276 275
276 276 276 277 277 278 278 279 279 280 281 281 281 281 282 282 282 282 282 282 282 283 283 283 283 283 283 283 283 283 283 284 284 284 284 284 284 284 284 284 284 283 283 283 283 283 282 282 282 282 282 282 282 281 281 281 281 281 281 281 281 281 281 281 281 281 281 281 281 281 281 280 280 280 280 280 280 280 280 279 279 278 277 276 275 274
278 278 279 279 279 280 280 281 281 281 282 282 282 282 282 282 282 282 282 283 283 283 284 283 283 283 283 283 283 283 284 284 284 284 284 284 284 284 284 284 283 283 283 283 283 283 282 282 282 282 282 282 282 282 282 281 281 281 281 281 281 281 281 281 281 281 281 281 281 281 280 280 280 280 280 280 280 280 279 279 278 278 277 276 275 274
280 280 281 281 281 281 282 282 282 282 283 283 283 283 283 283 284 284 284 284 284 284 284 284 284 283 283 283 284 284 284 284 284 284 284 284 284 283 283 283 283 283 283 283 283 283 283 283 283 282 282 282 282 282 282 282 282 281 281 281 281 282 281 281 281 281 281 281 280 280 280 280 280 280 279 279 279 279 279 278 278 277 277 276 275 274
282 282 282 282 282 282 282 283 283 283 284 284 284 284 285 285 285 285 285 285 285 285 285 285 285 284 283 284 285 285 285 285 284 284 284 283 283 283 283 283 283 283 283 283 283 283 283 283 282 282 282 282 282 281 281 281 281 281 281 281 281 281 281 281 281 280 280 280 280 280 280 279 279 279 279 279 279 278 278 278 278 278 277 276 275 274
283 283 283 283 283 284 284 284 284 285 285 285 285 285 285 285 285 285 286 286 286 286 286 286 286 285 285 286 285 285 285 284 284 284 284 284 283 283 283 283 283 283 283 283 282 282 282 282 282 281 281 281 281 281 281 281 281 280 280 280 280 280 280 280 280 280 280 280 280 280 280 279 279 279 279 279 279 279 279 279 278 278 278 277 276 276
283 283 284 284 284 284 285 285 285 286 286 286 286 286 286 286 286 287 287 287 287 287 288 287 287 287 288 287 287 286 285 285 284 284 284 284 284 283 283 283 283 282 282 282 282 282 281 281 281 281 281 280 280 280 280 280 280 280 280 280 280 281 281 281 281 281 280 280 280 280 280 279 279 279 279 279 279 279 279 279 278 278 278 278 277 277
284 284 285 285 286 286 286 287 287 287 287 287 287 287 287 287 287 288 288 288 288 289 288 288 288 288 289 289 288 286 286 285 284 284 284 284 283 283 283 282 282 282 282 281 281 281 281 281 281 281 281 281 281 281 281 280 280 280 281 281 281 281 281 281 281 281 281 280 280 280 280 280 279 279 279 279 279 279 279 278 278 278 278 278 278 278
286 286 286 287 287 287 288 288 288 288 288 288 288 288 288 288 288 289 289 289 289 290 289 289 289 289 289 289 287 287 286 285 285 284 284 284 283 283 283 283 282 282 282 282 282 282 281 281 281 281 281 281 281 281 281 281 281 281 281 281 282 282 282 281 281 281 281 280 280 280 280 280 280 279 279 279 278 278 278 278 278 278 278 278 278 277
288 287 287 287 288 288 289 289 290 290 290 290 290 289 289 289 289 290 290 290 290 290 290 290 289 289 289 289 287 287 287 286 286 285 285 284 284 284 284 283 283 283 283 282 282 282 282 282 282 282 282 281 281 281 281 281 281 282 282 282 282 282 281 281 281 280 280 280 280 280 279 279 279 278 278 278 277 277 277 277 277 277 277 277 277 277
291 291 291 291 292 292 293 293 294 294 293 293 292 292 291 290 290 291 291 291 291 291 291 291 290 290 290 289 288 287 287 286 286 285 285 285 284 284 284 284 283 283 283 283 282 282 282 282 281 281 281 281 281 281 281 281 281 281 281 281 281 281 280 280 280 279 279 279 279 279 278 278 278 277 277 277 278 278 278 278 278 278 277 277 277 277
295 296 296 297 297 297 297 297 296 296 296 296 295 295 295 294 292 292 292 291 291 292 292 291 290 290 289 289 288 287 286 285 285 285 284 284 284 283 283 283 283 283 283 282 282 281 281 281 281 281 281 281 280 280 281 281 281 281 281 280 280 280 279 279 279 278 278 278 278 278 278 278 278 278 278 278 278 278 278 278 277 277 277 277 277 277
296 296 296 298 298 299 300 299 299 298 298 297 297 296 296 295 295 294 292 291 290 289 289 289 289 289 288 287 287 286 285 285 285 284 284 284 284 283 283 283 283 283 283 282 282 282 282 282 281 281 281 281 281 281 281 282 282 281 281 280 280 279 279 279 279 278 278 278 278 278 278 278 278 278 278 278 278 278 278 277 277 277 277 277 277 277
301 300 299 300 301 301 301 300 300 299 298 297 296 296 295 295 295 294 293 293 291 290 289 289 289 290 289 288 288 288 287 287 287 287 287 286 286 286 286 286 285 285 285 284 284 283 283 283 283 283 283 283 283 283 283 283 282 282 281 281 280 280 280 280 280 280 280 280 280 280 280 280 280 280 279 279 279 279 279 278 278 278 278 277 277 277
305 303 302 302 302 301 301 300 299 298 298 297 297 297 297 297 297 296 296 296 295 294 294 293 293 292 292 291 291 291 290 290 290 289 289 289 289 289 288 288 287 287 286 285 285 285 285 285 285 285 285 285 285 285 284 283 283 282 282 282 282 282 282 282 282 282 282 282 282 281 281 281 281 281 280 280 280 280 280 279 279 279 278 278 278 277
303 302 302 301 302 302 303 303 302 301 301 300 300 300 299 299 299 299 298 298 297 297 296 296 295 294 293 292 292 291 290 290 290 290 290 289 289 288 288 287 286 286 285 285 285 286 286 286 286 285 285 285 284 284 283 283 283 283 283 283 283 282 282 282 282 282 282 281 281 281 281 281 281 280 280 280 280 279 279 279 279 278 278 278 277 277
305 306 305 304 305 305 305 305 304 303 303 302 302 301 301 300 300 299 299 298 297 297 296 295 294 293 293 292 291 290 290 290 289 289 288 288 287 287 286 285 285 285 285 285 285 285 285 284 284 284 284 283 283 283 283 283 283 282 282 282 282 282 281 281 281 281 281 281 280 280 280 280 280 279 279 279 279 279 278 278 278 278 277 277 277 276
309 309 308 307 307 306 306 305 305 305 305 304 304 303 303 302 301 300 299 298 298 297 296 295 294 293 292 291 291 290 290 289 289 288 287 287 286 285 285 285 285 285 285 284 284 284 283 283 283 283 283 282 282 282 282 282 282 281 281 281 281 281 281 281 280 280 280 280 280 279 279 279 279 279 279 278 278 278 278 278 277 277 277 277 277 276
311 311 310 310 309 309 308 307 307 306 305 305 304 303 302 302 301 301 300 299 299 298 298 297 296 294 293 292 292 292 291 290 289 288 288 287 287 286 286 286 285 285 285 284 284 284 283 283 283 282 282 282 282 282 281 281 281 281 281 281 281 281 281 281 280 280 280 280 279 279 279 279 279 279 278 278 278 278 278 278 278 278 277 277 277 277
314 313 312 312 312 311 310 309 309 308 307 306 305 304 303 302 301 301 300 300 299 299 299 299 298 297 296 295 294 293 292 292 291 290 289 289 288 288 287 287 286 286 285 285 285 284 284 283 283 283 282 282 282 282 282 281 281 281 281 281 281 281 281 280 280 280 280 280 279 279 279 279 279 279 279 279 279 278 278 278 278 278 277 277 277 277
315 315 315 315 314 313 312 311 310 309 308 307 307 306 305 304 303 303 302 302 301 300 299 299 299 299 298 297 295 295 294 293 292 292 291 290 290 289 288 288 288 287 287 286 286 286 285 285 284 284 284 283 283 283 283 282 282 282 282 282 281 281 281 281 281 280 280 280 280 280 280 280 279 279 279 279 279 279 279 278 278 278 278 278 278 278
318 317 317 316 315 314 313 312 311 310 310 309 308 307 306 305 304 304 304 303 302 301 300 299 299 299 299 298 297 297 296 295 295 294 294 293 292 292 291 290 290 289 289 288 288 287 287 286 286 285 285 285 284 284 283 283 283 282 282 282 282 282 281 281 281 281 281 281 281 280 280 280 280 280 280 280 280 280 279 279 279 279 279 279 278 278
320 319 318 317 315 314 313 312 311 309 309 308 307 306 305 305 305 305 305 304 304 303 302 302 302 302 301 300 300 300 299 299 298 298 297 297 296 296 295 295 294 293 292 291 291 290 289 288 287 287 286 286 285 285 284 284 283 283 283 283 282 282 282 282 281 281 281 281 281 281 281 281 281 281 280 280 280 280 280 280 280 279 279 279 279 278
321 320 319 318 317 316 315 313 312 311 310 309 309 308 308 308 307 307 307 306 305 305 304 304 303 303 302 302 301 301 300 300 299 299 298 298 297 297 296 296 295 295 294 294 293 292 291 291 290 289 288 288 287 286 286 285 285 284 284 284 283 283 283 282 282 282 282 282 282 282 282 281 281 281 281 281 281 281 280 280 280 280 279 279 279 278
322 321 320 320 319 318 318 318 317 316 315 314 313 312 311 310 310 309 308 307 306 306 305 304 304 304 303 302 302 301 300 300 299 298 298 297 297 296 296 296 295 295 295 294 294 294 293 293 292 292 291 290 289 289 288 287 287 286 286 285 285 285 284 284 283 283 283 283 282 282 282 282 282 281 281 281 281 281 281 280 280 280 279 279 278 278
323 322 321 321 321 321 321 320 320 319 318 317 315 314 313 312 311 310 310 308 308 307 307 306 306 306 305 304 303 302 302 301 301 300 299 299 298 298 297 296 296 295 295 294 294 294 293 293 293 293 292 291 291 290 290 289 289 288 287 287 286 286 285 285 284 284 284 283 283 283 282 282 282 282 281 281 281 281 280 280 280 280 280 279 279 279
324 323 323 323 323 323 322 321 320 320 319 318 317 316 315 314 313 312 312 312 312 311 311 311 310 309 309 308 307 306 305 304 304 303 302 302 301 300 299 299 298 297 296 296 295 294 294 293 293 292 292 291 291 290 290 290 289 289 288 288 287 287 286 286 285 285 285 284 284 284 283 283 283 283 282 282 282 282 281 281 281 281 281 281 281 280
326 325 325 325 324 323 323 322 321 320 320 319 318 317 317 316 315 316 317 317 316 316 316 315 315 314 314 313 312 311 310 309 308 308 307 306 305 304 303 302 301 300 299 298 297 297 296 295 295 294 293 293 292 291 291 290 290 289 289 288 288 288 287 287 286 286 286 285 285 285 284 284 284 284 283 283 283 283 283 283 282 282 282 282 282 281
328 327 326 326 325 325 324 323 323 322 322 322 321 321 321 320 319 318 319 319 318 318 317 317 316 316 315 315 315 314 314 313 312 312 311 310 309 308 307 306 305 304 303 302 301 300 299 298 298 297 296 295 294 293 293 292 291 291 290 290 289 289 288 288 287 287 287 286 286 286 285 285 285 285 285 285 284 284 284 284 283 283 283 283 282 282
329 329 328 327 327 326 325 325 324 324 324 324 325 324 323 323 321 320 321 321 319 318 317 317 317 317 317 318 318 317 316 316 315 315 314 313 312 311 310 309 308 307 306 305 304 304 303 302 301 300 299 298 297 296 295 294 294 293 293 292 291 291 290 290 289 289 288 288 288 287 287 287 287 286 286 286 285 285 285 284 284 284 284 284 283 283
331 330 329 329 328 328 327 327 327 327 328 328 328 326 326 326 325 323 322 322 320 319 319 319 319 320 320 320 320 319 318 317 317 316 315 314 313 312 312 311 310 310 309 308 307 306 306 305 304 303 302 301 300 299 298 297 296 296 295 294 294 293 292 292 291 291 290 290 289 289 289 288 288 287 287 287 286 286 286 286 285 285 285 285 285 284
332 332 331 331 330 330 330 331 331 330 330 329 329 329 329 329 328 325 324 324 323 323 323 323 323 322 322 321 321 320 318 317 316 316 316 315 315 314 314 313 313 312 311 311 310 309 308 307 306 305 304 303 302 301 300 299 298 297 296 296 295 294 293 293 292 292 291 291 290 290 290 289 289 288 288 288 287 287 287 287 287 286 286 286 285 285
334 334 333 333 333 333 333 334 333 332 332 332 333 333 332 331 331 329 327 327 328 328 327 326 325 324 323 322 321 320 319 318 318 319 318 318 317 317 316 316 315 315 314 313 312 311 310 310 308 307 306 305 304 303 301 300 299 298 298 297 296 295 295 294 293 293 292 292 291 291 291 290 290 290 289 289 289 289 288 288 288 287 287 287 286 285
336 336 336 336 337 337 336 337 337 336 337 337 337 336 334 334 333 333 331 330 330 329 328 327 325 324 323 322 321 321 321 320 320 320 320 319 319 319 318 317 316 315 315 314 313 312 312 311 310 309 308 307 306 304 303 302 301 300 299 299 298 297 296 296 295 295 294 294 293 293 292 292 292 291 291 291 290 290 290 290 289 289 289 288 288 287
339 339 339 340 340 341 340 341 341 340 340 338 338 337 336 335 335 334 333 332 331 331 330 328 327 325 324 324 323 323 323 322 321 321 321 320 319 318 318 317 316 315 315 314 314 313 313 312 311 310 309 308 307 305 304 303 302 301 300 300 299 298 298 297 296 296 295 295 294 294 294 293 293 293 292 292 292 291 291 291 291 291 290 290 290 289
342 343 343 343 344 344 343 343 343 342 341 339 339 339 338 337 336 337 337 336 334 333 332 331 330 329 327 327 326 326 326 325 323 322 322 321 319 319 318 317 317 316 315 315 314 314 313 313 312 311 310 309 308 307 305 304 303 302 301 301 300 299 299 298 297 297 296 296 295 295 295 294 294 294 293 293 293 292 292 292 292 292 291 291 290 289
345 346 346 346 346 346 345 345 344 344 343 342 342 341 341 340 339 339 339 339 337 335 335 334 334 332 331 330 329 329 329 328 326 324 324 323 321 320 320 319 318 317 317 316 316 315 315 314 314 313 312 311 309 308 307 306 305 304 303 302 302 301 300 299 299 298 298 297 297 296 296 295 295 295 294 294 293 293 293 293 293 293 292 292 291 289
348 349 349 348 348 348 347 347 346 345 345 345 343 343 344 344 343 342 341 341 340 339 338 338 337 336 334 334 333 332 331 330 329 328 327 326 325 323 323 322 321 320 319 319 318 318 317 316 316 315 314 313 311 310 309 308 306 306 305 304 303 303 302 301 301 300 299 299 298 297 297 296 296 296 295 295 294 294 294 294 294 294 293 292 291 289
350 350 350 349 349 349 349 349 349 347 347 347 346 346 346 346 345 344 343 343 343 342 340 340 339 339 338 337 336 335 334 333 332 331 330 329 328 327 326 325 324 323 322 322 321 321 320 319 318 317 316 315 313 312 311 309 308 308 307 306 305 304 303 302 302 301 301 300 299 299 298 298 298 298 298 297 297 297 296 296 296 295 294 293 291 289
352 352 352 351 351 351 350 350 351 350 349 349 348 348 348 348 347 347 345 345 344 344 343 342 342 342 341 340 338 337 337 336 334 333 333 332 331 330 329 328 327 326 325 324 324 323 322 320 319 318 317 316 315 313 312 311 310 309 308 307 306 305 305 304 303 303 302 302 301 301 301 301 301 301 300 300 299 299 298 298 297 296 294 293 291 289
353 354 354 353 352 352 352 351 352 352 352 351 351 350 349 349 349 348 348 347 346 346 346 345 345 344 343 342 340 339 338 338 337 336 335 334 333 332 331 330 329 328 327 327 326 325 323 322 321 319 318 318 316 315 314 313 312 311 310 309 308 307 306 306 305 305 304 304 303 303 303 303 303 303 302 301 301 300 299 299 298 296 295 293 291 289
355 355 355 355 354 354 354 353 353 354 353 353 352 351 350 350 350 350 350 349 349 348 348 347 346 345 344 344 342 341 340 340 339 338 337 336 335 334 333 332 331 330 329 329 328 327 326 324 322 321 320 319 318 317 317 315 314 312 312 311 310 309 308 307 307 306 306 305 305 306 305 305 305 304 303 302 301 300 300 299 298 297 295 293 291 289
358 357 357 357 356 356 355 355 354 354 354 353 353 353 352 351 352 352 351 352 351 350 349 348 347 346 345 345 344 343 342 342 341 340 339 338 337 336 335 334 333 332 331 330 329 329 327 326 324 323 322 321 320 320 319 317 315 314 313 312 311 310 309 309 308 308 308 308 308 308 307 306 306 304 303 302 301 301 301 300 299 297 296 293 291 289
359 359 358 358 358 357 356 355 355 354 354 354 354 354 353 353 353 353 353 353 352 351 350 349 348 347 346 346 346 345 344 343 343 341 340 339 338 337 336 335 334 333 332 331 331 330 329 327 326 325 324 323 322 322 320 319 317 315 314 314 313 312 311 310 310 310 310 309 309 308 308 307 306 305 304 303 302 302 301 300 299 298 296 294 292 290
360 360 359 359 358 358 357 356 356 355 354 355 355 355 355 354 354 354 354 353 353 352 351 350 349 348 348 347 347 346 345 344 344 342 341 340 339 339 337 336 335 334 333 332 331 331 330 329 327 326 325 324 323 323 322 320 318 317 316 315 314 313 313 312 312 311 311 311 310 309 308 308 307 306 305 304 304 303 302 301 299 298 296 294 292 290
0 0 0 359 359 358 358 357 357 356 355 355 356 356 356 355 355 354 354 354 354 353 352 350 349 349 348 348 348 347 346 345 344 343 342 341 340 340 339 337 336 335 334 333 332 331 331 330 328 327 325 325 324 324 323 321 319 318 317 316 315 315 315 314 313 313 313 312 311 310 310 309 309 308 306 305 305 304 303 302 301 299 296 294 292 291
0 0 0 0 359 359 358 357 358 357 356 355 355 356 356 356 355 355 355 354 354 353 352 351 350 349 348 348 348 348 347 346 345 344 342 341 341 341 340 338 337 336 335 334 333 332 331 330 329 328 326 325 325 324 324 322 320 319 318 317 317 317 316 316 315 314 314 312 312 311 311 311 310 309 307 307 306 305 303 303 303 302 299 295 292 291
0 0 0 0 360 359 358 357 358 357 357 356 356 356 356 356 356 356 355 355 354 354 353 352 351 350 349 348 348 348 347 346 345 345 343 342 342 342 341 339 338 337 336 335 333 333 332 331 330 328 327 326 325 325 324 323 321 320 319 318 318 318 318 317 316 315 314 313 313 313 313 312 311 310 309 308 308 307 305 304 303 302 301 298 295 293
0 0 0 0 0 360 359 358 357 358 357 357 356 356 356 356 356 356 356 355 354 354 353 352 351 350 350 349 348 348 348 347 346 345 344 342 342 342 341 340 339 338 336 335 334 334 333 332 331 330 328 327 326 326 325 324 323 322 321 320 320 320 320 319 317 316 315 315 314 314 315 314 312 311 310 310 310 309 308 306 305 303 301 300 297 295